Change the Weather History Date:

Sunday, September 9, 2012

  Actual Average (KBIS) Record (KBIS)
Temperature  
Mean Temperature 58 °F 62 °F  
Max Temperature 80 °F 75 °F 99 °F (1931)
Min Temperature 37 °F 48 °F 28 °F (1898)
Degree Days  
Heating Degree Days 6 5  
Month to date heating degree days 37  
Since 1 July heating degree days 92  
Cooling Degree Days 0 2  
Month to date cooling degree days 22  
Year to date cooling degree days 503  
Growing Degree Days 8 (Base 50)    
Moisture  
Dew Point 34 °F    
Average Humidity 45    
Maximum Humidity 100    
Minimum Humidity 17    
Precipitation  
Precipitation 0.00 in 0.06 in 1.76 in (2013)
Month to date precipitation 0.54  
Year to date precipitation 14.35  
Snow  
Snow 0.00 in 0.00 in 0.00 in (2002)
Month to date snowfall 0.0  
Since 1 July snowfall 0.0  
Since 1 September snowfall 0.0  
Snow Depth -    
Sea Level Pressure  
Sea Level Pressure 30.07 in    
Wind  
Wind Speed 9 mph (South)    
Max Wind Speed 21 mph    
Max Gust Speed 31 mph    
Visibility 10 miles    
Events      
T = Trace of Precipitation, MM = Missing Value Source: NWS Daily Summary

Daily Weather History Graph

Daily Weather History Graph

Search for Another Location

Airport or City:

Trip Planner

Search our weather history database for the weather conditions in past years. The results will help you decide how hot, cold, wet, or windy it might be!

Date:

Astronomy

Sep. 09, 2012 Rise Set
Actual Time 7:14 AM CDT 8:06 PM CDT
Civil Twilight 6:43 AM CDT 8:36 PM CDT
Nautical Twilight 6:06 AM CDT 9:13 PM CDT
Astronomical Twilight 5:28 AM CDT 9:51 PM CDT
Moon 12:28 AM CDT (9/9) 4:09 PM CDT (9/9)
Length of Visible Light 13h 53m
Length of Day
12h 51m
Last Quarter, 39% of the Moon is Illuminated
Sep 9
Last Quarter
Sep 15
New
Sep 22
First Quarter
Sep 29
Full
Oct 8
Last Quarter

Hourly Weather History & Observations

Time (CDT) Temp. Windchill Dew Point Humidity Pressure Visibility Wind Dir Wind Speed Gust Speed Precip Events Conditions
12:15 AM 44.6 °F 41.4 °F 32.0 °F 61% 30.23 in 10.0 mi WSW 5.8 mph - N/A   Clear
12:35 AM 44.6 °F 42.2 °F 32.0 °F 61% 30.22 in 10.0 mi WSW 4.6 mph - N/A   Clear
12:55 AM 44.6 °F 41.4 °F 32.0 °F 61% 30.22 in 10.0 mi WSW 5.8 mph - N/A   Clear
1:15 AM 44.6 °F 43.1 °F 32.0 °F 61% 30.22 in 10.0 mi WSW 3.5 mph - N/A   Clear
1:35 AM 44.6 °F 41.4 °F 32.0 °F 61% 30.22 in 10.0 mi WSW 5.8 mph - N/A   Clear
1:55 AM 44.6 °F 42.2 °F 32.0 °F 61% 30.21 in 10.0 mi WSW 4.6 mph - N/A   Clear
2:15 AM 44.6 °F 42.2 °F 32.0 °F 61% 30.21 in 10.0 mi WSW 4.6 mph - N/A   Clear
2:35 AM 46.4 °F 44.3 °F 32.0 °F 57% 30.21 in 10.0 mi WSW 4.6 mph - N/A   Clear
2:55 AM 46.4 °F 44.3 °F 32.0 °F 57% 30.21 in 10.0 mi WSW 4.6 mph - N/A   Clear
3:15 AM 44.6 °F 43.1 °F 32.0 °F 61% 30.20 in 10.0 mi SW 3.5 mph - N/A   Clear
3:35 AM 44.6 °F 41.4 °F 32.0 °F 61% 30.20 in 10.0 mi ESE 5.8 mph - N/A   Clear
3:55 AM 37.4 °F 34.9 °F 33.8 °F 87% 30.20 in 10.0 mi South 3.5 mph - N/A   Clear
4:15 AM 44.6 °F 41.4 °F 32.0 °F 61% 30.20 in 10.0 mi SE 5.8 mph - N/A   Clear
4:35 AM 44.6 °F 42.2 °F 33.8 °F 66% 30.20 in 10.0 mi South 4.6 mph - N/A   Clear
4:55 AM 41.0 °F 36.4 °F 35.6 °F 81% 30.20 in 10.0 mi SE 6.9 mph - N/A   Clear
5:15 AM 41.0 °F 35.8 °F 35.6 °F 81% 30.21 in 10.0 mi SE 8.1 mph - N/A   Clear
5:35 AM 41.0 °F 36.4 °F 35.6 °F 81% 30.20 in 10.0 mi SE 6.9 mph - N/A   Clear
5:55 AM 42.8 °F 39.3 °F 37.4 °F 81% 30.21 in 10.0 mi SE 5.8 mph - N/A   Clear
6:15 AM 42.8 °F 39.3 °F 39.2 °F 87% 30.20 in 10.0 mi SE 5.8 mph - N/A   Clear
6:35 AM 41.0 °F 37.1 °F 39.2 °F 93% 30.21 in 10.0 mi SE 5.8 mph - N/A   Clear
6:55 AM 41.0 °F 38.0 °F 39.2 °F 93% 30.21 in 10.0 mi SSE 4.6 mph - N/A   Clear
7:15 AM 37.4 °F 33.8 °F 37.4 °F 100% 30.21 in 10.0 mi SSE 4.6 mph - N/A   Clear
7:35 AM 39.2 °F 35.9 °F 37.4 °F 93% 30.20 in 10.0 mi SSE 4.6 mph - N/A   Clear
7:55 AM 39.2 °F 35.0 °F 39.2 °F 100% 30.20 in 10.0 mi SE 5.8 mph - N/A   Clear
8:35 AM 44.6 °F 41.4 °F 41.0 °F 87% 30.20 in 10.0 mi SE 5.8 mph - N/A   Clear
8:55 AM 46.4 °F 44.3 °F 39.2 °F 76% 30.19 in 10.0 mi SE 4.6 mph - N/A   Clear
9:15 AM 48.2 °F - 39.2 °F 71% 30.19 in 10.0 mi SSE 6.9 mph - N/A   Clear
9:35 AM 51.8 °F - 39.2 °F 62% 30.19 in 10.0 mi South 6.9 mph - N/A   Clear
9:55 AM 53.6 °F - 39.2 °F 58% 30.18 in 10.0 mi SSE 8.1 mph - N/A   Clear
10:15 AM 57.2 °F - 39.2 °F 51% 30.18 in 10.0 mi SSE 8.1 mph - N/A   Clear
10:35 AM 62.6 °F - 35.6 °F 37% 30.17 in 10.0 mi South 12.7 mph - N/A   Clear
10:55 AM 62.6 °F - 35.6 °F 37% 30.16 in 10.0 mi South 13.8 mph 19.6 mph N/A   Clear
11:15 AM 64.4 °F - 35.6 °F 34% 30.16 in 10.0 mi South 13.8 mph 23.0 mph N/A   Clear
11:35 AM 66.2 °F - 33.8 °F 30% 30.16 in 10.0 mi South 15.0 mph 19.6 mph N/A   Clear
11:55 AM 68.0 °F - 32.0 °F 26% 30.14 in 10.0 mi South 16.1 mph 21.9 mph N/A   Clear
12:15 PM 71.6 °F - 32.0 °F 23% 30.13 in 10.0 mi South 15.0 mph 23.0 mph N/A   Clear
12:35 PM 71.6 °F - 32.0 °F 23% 30.11 in 10.0 mi South 16.1 mph 21.9 mph N/A   Clear
12:55 PM 73.4 °F - 32.0 °F 22% 30.10 in 10.0 mi SSE 18.4 mph - N/A   Clear
1:15 PM 73.4 °F - 32.0 °F 22% 30.09 in 10.0 mi South 17.3 mph 25.3 mph N/A   Clear
1:35 PM 73.4 °F - 32.0 °F 22% 30.08 in 10.0 mi South 17.3 mph 25.3 mph N/A   Clear
1:55 PM 75.2 °F - 32.0 °F 21% 30.06 in 10.0 mi South 16.1 mph 29.9 mph N/A   Clear
2:15 PM 75.2 °F - 32.0 °F 21% 30.05 in 10.0 mi South 17.3 mph 29.9 mph N/A   Clear
2:35 PM 77.0 °F - 32.0 °F 19% 30.04 in 10.0 mi South 18.4 mph 26.5 mph N/A   Clear
2:55 PM 77.0 °F - 33.8 °F 21% 30.03 in 10.0 mi South 18.4 mph 31.1 mph N/A   Clear
3:15 PM 78.8 °F - 33.8 °F 20% 30.01 in 10.0 mi South 20.7 mph 31.1 mph N/A   Clear
3:35 PM 78.8 °F - 35.6 °F 21% 30.00 in 10.0 mi South 17.3 mph 26.5 mph N/A   Clear
3:55 PM 80.6 °F - 33.8 °F 18% 29.99 in 10.0 mi South 16.1 mph 28.8 mph N/A   Clear
4:15 PM 80.6 °F - 33.8 °F 18% 29.98 in 10.0 mi South 17.3 mph 28.8 mph N/A   Clear
4:35 PM 80.6 °F - 32.0 °F 17% 29.97 in 10.0 mi South 17.3 mph 29.9 mph N/A   Clear
4:55 PM 80.6 °F - 33.8 °F 18% 29.95 in 10.0 mi SSE 19.6 mph 28.8 mph N/A   Clear
5:15 PM 80.6 °F - 33.8 °F 18% 29.95 in 10.0 mi South 17.3 mph 24.2 mph N/A   Clear
5:35 PM 80.6 °F - 32.0 °F 17% 29.94 in 10.0 mi South 17.3 mph 28.8 mph N/A   Clear
5:55 PM 80.6 °F - 32.0 °F 17% 29.93 in 10.0 mi SSE 17.3 mph 27.6 mph N/A   Clear
6:15 PM 80.6 °F - 33.8 °F 18% 29.93 in 10.0 mi SSE 19.6 mph 24.2 mph N/A   Clear
6:35 PM 78.8 °F - 33.8 °F 20% 29.92 in 10.0 mi South 12.7 mph 23.0 mph N/A   Clear
6:55 PM 77.0 °F - 35.6 °F 22% 29.91 in 10.0 mi SSE 13.8 mph - N/A   Clear
7:15 PM 75.2 °F - 35.6 °F 24% 29.90 in 10.0 mi SSE 15.0 mph - N/A   Clear
7:35 PM 73.4 °F - 35.6 °F 25% 29.90 in 10.0 mi SSE 12.7 mph - N/A   Clear
7:55 PM 71.6 °F - 35.6 °F 27% 29.89 in 10.0 mi SSE 10.4 mph - N/A   Clear
8:15 PM 68.0 °F - 35.6 °F 30% 29.89 in 10.0 mi SSE 10.4 mph - N/A   Clear
8:35 PM 66.2 °F - 35.6 °F 32% 29.89 in 10.0 mi SSE 10.4 mph - N/A   Clear
8:55 PM 66.2 °F - 35.6 °F 32% 29.89 in 10.0 mi SSE 10.4 mph - N/A   Clear
9:15 PM 68.0 °F - 33.8 °F 28% 29.88 in 10.0 mi SSE 12.7 mph - N/A   Clear
9:35 PM 68.0 °F - 33.8 °F 28% 29.88 in 10.0 mi SSE 11.5 mph - N/A   Clear
9:55 PM 66.2 °F - 33.8 °F 30% 29.88 in 10.0 mi SSE 12.7 mph - N/A   Clear
10:15 PM 66.2 °F - 33.8 °F 30% 29.87 in 10.0 mi SSE 13.8 mph - N/A   Clear
10:35 PM 66.2 °F - 32.0 °F 28% 29.86 in 10.0 mi SSE 12.7 mph 18.4 mph N/A   Clear
10:55 PM 66.2 °F - 32.0 °F 28% 29.86 in 10.0 mi SSE 11.5 mph 20.7 mph N/A   Clear
11:15 PM 66.2 °F - 32.0 °F 28% 29.85 in 10.0 mi SSE 15.0 mph 21.9 mph N/A   Clear
11:35 PM 66.2 °F - 32.0 °F 28% 29.84 in 10.0 mi SSE 16.1 mph 21.9 mph N/A   Clear
11:55 PM 64.4 °F - 32.0 °F 30% 29.83 in 10.0 mi SSE 13.8 mph 21.9 mph N/A   Clear